Dewpoint
60 51 48 42 41 28 27 27 28 20 19 16 16 11 1 -2 6 6 9 9 8 8 11 22 25 23 15 31 26 28 35 34 51 43 50 63 63 66 63 64 66 68 68 67 69 71 72 73 73 73 74 74 74 73 73 72 73 73 73 73 73 73 73 73 73 73 72 72 72 72 72 72 72 71 71 70 70 70 70 69 68 68 67 67 66 67 67 67 67 67 68 69 68 67 67 67 66
44 45 46 41 38 37 29 24 24 17 13 7 6 6 7 2 8 5 4 1 16 36 31 25 31 24 23 34 36 36 32 50 56 59 62 61 65 65 65 66 66 67 68 68 67 68 70 72 73 73 73 73 73 73 72 73 74 73 73 73 73 73 73 73 73 73 72 72 72 72 72 72 72 71 71 70 70 70 70 69 68 68 67 67 66 68 68 67 67 67 68 67 67 67 67 66 66
39 38 25 32 38 37 35 24 20 13 13 7 -1 0 1 2 2 -2 4 29 31 36 32 36 37 33 28 34 31 28 43 47 60 61 63 64 61 64 67 67 68 68 68 67 67 67 69 71 73 73 73 73 73 73 73 74 74 73 73 73 73 73 73 73 73 72 72 72 72 72 72 72 72 71 71 70 70 70 70 70 68 68 68 67 66 66 68 67 66 66 67 67 67 67 66 66 66
55 30 21 26 33 37 34 27 18 13 7 8 3 -5 -3 3 -2 25 32 38 37 31 31 34 28 39 36 33 38 36 46 54 56 60 60 63 63 62 67 67 69 68 68 66 65 66 68 72 73 73 73 73 73 73 74 74 74 74 74 73 73 73 73 73 72 72 72 72 72 72 72 71 71 71 70 70 70 69 69 69 70 68 68 67 66 65 66 67 66 67 67 67 68 67 66 66 66
42 30 29 21 31 26 19 23 12 5 4 1 -2 -6 -3 -2 10 25 33 36 39 35 34 36 36 43 45 50 42 41 60 55 55 58 61 63 63 64 66 68 68 68 67 65 66 66 69 72 73 72 72 73 73 73 73 74 74 73 73 73 73 73 73 73 72 72 72 72 72 72 71 71 70 70 70 70 70 70 70 69 70 69 68 68 67 68 68 68 67 67 67 68 68 67 66 67 67
34 24 28 33 30 30 19 14 15 7 2 0 -4 -8 -7 4 12 13 7 24 38 39 39 37 34 36 41 48 50 60 60 50 58 60 62 63 64 66 66 68 68 68 66 66 66 67 70 73 72 72 72 73 73 73 73 74 73 73 73 73 73 73 73 73 72 72 72 72 72 71 71 71 70 70 70 71 71 71 71 70 68 68 67 67 67 66 66 67 67 67 67 67 68 67 66 67 68
26 23 20 30 34 30 19 11 9 6 0 -3 -5 -1 1 6 5 7 3 4 25 37 41 38 39 38 40 46 54 60 61 61 54 60 62 64 67 67 68 67 70 68 66 67 67 68 70 72 72 72 72 73 73 73 73 73 73 73 73 73 73 73 73 72 72 72 72 72 71 71 71 70 70 70 70 70 70 70 70 70 69 68 68 68 67 67 67 67 67 67 67 68 68 67 67 68 68
27 22 18 20 17 15 12 9 5 4 -1 -4 -5 -1 8 7 7 4 2 3 9 22 36 37 38 35 45 42 50 59 60 62 62 64 64 65 66 68 67 69 69 70 70 71 70 69 72 72 72 72 72 72 73 73 73 73 73 73 73 73 73 73 73 73 72 72 72 71 71 71 71 70 70 70 68 69 70 71 70 70 69 68 68 68 68 68 67 67 67 67 68 68 68 68 67 67 68
24 20 24 12 14 9 4 1 -0 -2 -5 -5 -7 6 28 6 3 2 4 4 9 20 32 35 36 33 40 39 59 58 62 63 64 66 64 65 67 68 67 67 70 70 69 70 70 71 71 72 72 72 72 73 73 73 73 73 73 73 73 72 72 72 72 72 72 72 72 71 71 70 70 70 70 70 70 69 70 69 69 69 69 69 68 68 68 67 67 67 68 68 68 68 68 68 68 68 68
22 25 23 15 11 11 3 -3 -3 -4 -5 -6 -4 -0 4 3 4 -3 0 4 5 16 25 32 35 31 38 50 55 57 61 65 64 63 64 65 66 66 68 69 68 68 70 70 69 69 71 72 72 72 72 72 72 72 72 72 72 72 72 72 72 72 72 72 72 72 72 71 71 71 70 70 70 70 70 70 70 69 68 69 69 69 68 68 67 68 68 68 69 69 69 68 67 67 68 68 67
19 13 18 12 8 9 7 1 -6 -6 -6 -7 -1 -2 2 6 3 -1 -1 3 5 8 17 32 35 34 37 49 60 64 64 64 63 62 64 64 65 66 67 71 70 69 70 71 69 70 70 71 72 72 72 71 71 72 72 72 72 72 72 72 72 72 72 72 72 72 71 71 71 71 71 70 70 70 70 69 70 69 69 69 69 68 68 68 67 67 68 68 68 68 67 68 68 68 68 67 67
18 10 9 10 7 4 1 1 -4 -9 -9 -6 -4 -1 10 9 5 1 -1 3 6 6 14 35 32 34 37 47 58 63 65 65 64 64 64 64 65 66 70 69 68 69 71 71 68 70 70 71 71 72 72 72 71 71 71 71 71 71 71 72 72 72 72 72 72 71 71 71 71 71 70 70 70 70 69 69 69 69 69 69 69 68 67 68 68 68 68 68 68 68 68 68 68 68 67 68 68
16 13 4 6 5 2 -1 -5 -9 -5 -4 -5 -6 6 14 13 8 -0 -4 0 6 7 10 33 43 39 40 53 61 64 65 64 62 64 65 64 66 66 69 68 68 68 69 69 68 67 69 70 71 70 72 71 71 71 71 71 71 71 71 71 71 71 71 71 70 71 71 71 71 71 71 70 70 69 69 69 69 69 70 69 69 68 68 68 68 68 69 69 68 68 67 68 67 67 67 68 68
15 19 12 7 1 -4 -6 -6 -6 -5 -7 -6 -7 8 22 20 22 8 2 3 5 5 12 33 46 39 49 56 59 60 64 65 65 66 65 66 66 68 68 69 68 68 68 70 71 69 70 70 71 70 70 70 70 71 71 71 70 69 69 70 71 71 71 71 71 71 71 71 71 71 71 70 70 69 68 68 69 70 70 69 69 69 68 68 69 69 69 68 67 67 67 67 67 67 67 67 68
12 13 13 12 5 1 -6 -2 -5 -8 -8 0 13 9 9 26 28 26 19 15 13 7 33 39 43 39 56 46 50 57 63 66 67 67 66 66 67 67 67 68 68 68 68 69 70 70 70 71 73 71 69 68 68 69 69 69 69 68 68 69 70 71 71 70 71 71 72 71 71 71 71 70 70 69 69 69 69 70 70 69 69 68 68 68 69 68 68 67 67 67 67 67 67 67 67 67 68
14 13 13 16 7 2 -2 -4 -4 -5 -2 5 12 9 4 26 28 30 25 16 15 34 41 38 46 41 49 51 51 58 64 66 67 68 67 67 68 67 67 68 70 68 68 69 70 70 71 70 71 71 69 67 69 69 68 68 68 68 68 70 70 71 71 71 72 72 72 71 70 71 71 70 70 69 69 69 69 69 70 68 69 69 68 68 68 68 67 67 67 67 67 67 67 67 67 68 67
17 15 16 13 6 1 -1 -2 -6 -6 -0 5 11 8 3 23 31 29 39 29 36 41 36 45 43 46 47 55 60 63 65 67 68 68 68 67 68 66 66 66 65 66 66 68 69 69 70 71 71 71 70 69 69 71 70 69 69 69 69 70 70 71 71 71 71 71 71 70 71 71 70 66 66 67 68 66 69 68 70 70 69 69 68 68 68 68 67 67 67 67 67 67 67 68 67 67 68
16 14 13 12 4 -0 -1 -2 -1 -3 4 8 10 9 6 9 27 32 37 35 35 37 46 46 43 50 50 55 58 64 65 67 68 67 65 65 66 65 65 66 66 65 65 66 68 69 68 69 68 68 69 70 70 71 71 68 69 69 68 69 69 70 71 71 71 69 69 70 70 70 69 68 66 66 68 67 66 69 69 69 69 68 68 68 68 68 67 67 67 67 68 68 67 67 68 63 65
16 13 10 5 3 1 0 0 -0 3 4 9 9 9 7 10 19 31 34 32 41 36 41 41 44 49 55 57 61 63 66 68 68 67 65 66 65 66 65 65 65 65 65 66 69 68 67 68 69 69 70 69 70 68 68 69 68 71 68 69 69 69 70 70 69 68 67 67 68 66 70 71 69 69 68 66 66 67 67 68 69 68 68 68 68 68 68 67 67 67 67 67 68 68 64 61 59
13 11 5 2 1 0 4 5 5 8 10 9 8 9 12 12 22 33 35 37 38 34 35 35 38 46 54 58 60 63 66 66 68 67 65 65 65 65 65 65 64 65 64 65 66 67 67 67 68 68 69 69 69 69 69 70 70 70 69 69 69 68 67 65 66 66 66 66 64 69 70 68 68 69 68 68 66 67 68 69 68 68 68 68 68 68 68 68 68 68 67 67 67 64 62 59 57
10 8 4 2 -0 -0 6 7 6 4 8 10 8 8 8 10 15 27 30 32 31 29 31 33 33 44 56 57 60 64 65 66 65 65 66 65 66 66 65 66 66 65 64 65 66 66 67 67 68 69 71 69 69 69 68 69 68 70 69 68 69 68 64 64 64 65 67 67 67 69 67 67 67 67 68 68 67 67 66 66 67 65 66 66 68 65 65 65 66 63 62 63 62 62 58 59 59
13 6 3 3 5 5 7 7 5 9 11 10 8 7 6 7 13 17 25 29 28 28 29 30 37 50 51 51 59 62 64 65 64 64 65 65 65 65 65 65 66 66 65 64 64 65 66 67 69 67 68 70 70 68 67 68 69 69 69 70 69 68 67 65 65 67 68 69 69 66 65 67 68 68 69 68 68 67 69 65 62 67 62 64 66 65 65 64 63 62 61 61 61 60 60 59 60
13 9 5 5 6 5 9 5 7 8 7 6 6 7 8 7 9 17 24 23 25 29 33 34 38 50 46 53 58 62 63 64 63 64 64 64 65 64 65 64 64 64 63 64 63 64 66 68 67 66 67 69 69 69 68 67 68 69 67 69 67 68 67 67 65 65 69 69 68 68 68 68 67 67 68 67 67 66 65 67 68 67 67 68 65 67 65 63 65 66 63 61 61 60 58 58 58
12 7 7 11 10 8 10 6 7 6 6 9 8 7 7 6 7 13 18 21 29 32 34 34 32 53 49 51 60 63 63 61 63 64 63 64 64 64 65 64 64 64 63 63 65 65 65 67 67 69 68 68 67 69 68 67 68 68 68 68 68 67 68 66 65 66 67 70 68 68 69 68 68 68 67 67 66 66 66 67 68 68 68 67 66 67 63 63 64 64 62 59 58 58 57 58 56
7 9 9 4 6 7 9 6 4 5 6 7 8 7 7 7 7 8 11 22 27 31 31 28 29 46 49 52 58 63 64 64 63 64 63 61 62 65 65 64 65 63 63 63 64 66 66 67 67 64 64 67 69 66 66 67 67 67 67 67 68 68 69 68 68 68 68 68 68 68 67 69 66 66 67 66 67 66 69 68 67 67 66 68 67 68 62 61 61 61 60 59 60 59 57 59 55
5 11 9 1 9 11 8 6 3 2 6 6 7 7 8 6 6 7 8 15 24 29 25 25 32 43 51 56 59 63 64 64 64 63 63 63 64 65 64 63 63 62 63 63 64 65 63 65 64 64 64 62 65 66 66 67 67 67 67 67 67 67 67 68 69 67 68 68 68 68 67 67 69 69 66 65 65 66 66 65 66 67 69 68 67 66 62 61 60 61 59 58 54 58 56 57 55
11 11 9 2 2 9 9 6 4 3 5 4 5 7 6 7 6 5 8 10 22 22 23 25 34 40 52 54 62 63 64 63 63 64 64 64 63 64 63 62 61 63 63 63 65 63 65 63 62 62 63 66 63 66 66 67 67 67 66 67 67 67 67 68 68 68 68 68 69 67 66 67 67 68 68 66 66 65 67 68 66 67 68 67 68 64 64 63 61 61 60 58 58 58 57 54 55
7 8 8 4 2 8 9 5 4 3 2 4 5 5 6 5 7 6 6 11 21 17 26 29 32 39 47 55 61 62 64 63 61 64 64 63 62 62 62 60 62 63 63 63 64 65 64 63 62 61 64 67 66 64 65 65 67 66 66 66 67 66 68 68 66 67 67 68 68 68 68 66 66 67 68 67 68 66 66 67 66 67 67 68 68 68 63 63 62 59 60 61 62 60 59 58 58
8 7 5 7 5 5 7 5 5 6 3 5 6 4 4 4 6 7 10 19 20 22 27 31 33 45 55 60 60 61 61 61 62 62 63 62 63 63 61 63 62 63 63 63 63 64 64 65 64 62 63 65 64 63 62 65 67 64 65 65 67 67 67 67 66 67 68 67 68 67 66 66 67 65 69 68 67 66 64 67 67 67 67 66 67 66 63 64 64 63 63 61 61 61 59 59 55
7 4 5 3 1 2 4 2 2 1 2 2 3 3 4 2 5 6 11 22 22 21 25 26 39 48 55 61 60 61 61 61 62 61 61 63 64 62 61 62 62 62 62 63 63 64 63 63 65 66 65 63 65 63 65 66 66 64 65 65 66 67 66 66 68 68 68 67 67 66 67 66 66 69 68 69 67 68 68 66 66 66 66 65 68 70 69 64 63 62 61 61 61 60 60 60 58
5 4 3 6 1 -1 -2 -1 -1 -1 -0 2 4 7 0 0 2 5 5 17 19 20 22 26 36 51 55 60 61 60 60 62 63 62 63 63 63 60 62 62 61 62 62 63 64 64 64 64 66 64 65 63 63 63 63 65 66 65 65 65 66 68 67 67 68 66 67 67 67 66 66 66 65 66 66 67 67 67 66 66 66 68 68 67 67 67 69 68 64 63 60 60 61 60 59 61 64
4 1 2 0 -1 -3 -0 1 -1 -3 1 2 3 8 -1 -2 -2 3 3 13 18 18 21 24 37 51 54 61 61 60 60 62 60 60 61 62 62 61 60 60 61 61 63 63 63 63 62 63 64 64 65 64 65 66 67 69 68 67 67 66 67 69 67 65 68 67 67 68 67 66 68 66 66 66 67 66 67 65 65 66 68 67 67 67 67 66 68 68 64 63 63 62 60 59 58 60 63
4 3 13 2 -3 -3 -8 -3 -2 -0 -2 1 1 -2 -3 -5 -3 2 6 16 17 18 19 25 39 51 57 61 60 60 60 61 59 57 57 59 60 61 61 60 61 62 64 61 62 63 61 62 64 66 64 64 65 66 67 65 67 66 66 68 66 69 68 68 67 67 68 67 66 66 67 66 65 66 67 67 67 67 65 66 64 67 68 66 66 66 67 67 64 65 65 64 63 61 57 57 62
5 0 2 3 1 -3 -6 -1 1 1 -2 -2 1 -2 -3 -1 6 9 16 17 17 19 19 26 46 50 55 58 58 60 60 60 58 56 57 58 58 60 61 62 62 58 63 64 63 60 59 61 65 67 65 66 67 66 65 65 67 67 65 65 68 65 64 63 66 66 66 68 65 62 64 66 67 66 66 66 69 65 64 64 64 66 65 67 66 67 66 68 65 66 65 65 64 62 59 59 60
8 9 7 7 3 -2 -7 -3 2 2 -0 -3 3 2 -1 -3 7 9 14 15 17 21 18 28 44 45 50 51 55 59 58 60 59 58 56 58 57 56 58 60 58 62 63 65 62 62 61 63 64 66 65 66 67 68 67 66 67 67 67 65 64 64 63 62 64 63 62 63 67 64 65 67 66 66 66 67 68 70 66 64 65 66 65 67 67 66 64 67 67 66 66 65 66 62 65 63 63
3 5 4 1 4 -3 -4 -4 1 4 -1 -5 1 3 -2 -3 -2 6 13 13 18 20 23 25 38 44 50 53 51 54 58 58 60 58 55 55 56 60 60 58 62 63 65 65 64 64 64 64 64 65 67 66 67 67 65 65 65 63 64 65 62 58 57 55 57 57 60 61 63 64 65 67 65 66 66 66 67 67 68 67 66 65 67 66 66 65 64 65 66 66 66 65 64 63 63 63 63
2 2 4 1 -4 3 4 -4 4 5 3 2 0 2 1 2 1 5 13 16 17 19 22 26 34 47 48 55 48 50 56 57 55 55 54 51 56 59 61 60 63 64 64 64 64 64 65 64 64 66 66 67 66 66 65 64 63 62 57 55 54 53 53 55 55 58 60 60 64 63 64 64 66 66 66 66 66 66 66 66 66 66 66 66 65 66 67 65 65 66 65 65 63 62 63 63 62
7 7 5 2 -2 1 2 -1 9 9 17 6 7 0 4 8 10 8 11 20 20 21 22 29 35 41 46 53 47 51 57 54 53 54 57 50 54 58 59 61 63 63 63 63 64 64 65 64 63 63 67 66 66 66 66 64 60 55 56 52 53 49 49 50 55 59 61 61 64 65 65 64 65 66 66 66 66 66 66 65 65 67 66 65 66 66 66 66 66 64 65 63 62 61 62 63 65
18 10 7 5 -2 -2 -3 -1 8 11 15 12 6 6 6 10 11 10 14 22 26 25 25 30 34 35 51 47 48 51 54 53 55 56 59 58 58 59 62 62 62 63 63 63 65 65 65 63 64 65 64 64 65 65 64 64 63 60 57 55 52 50 55 56 53 57 58 59 63 63 64 65 65 63 65 65 64 64 65 64 64 65 65 66 66 65 65 66 66 65 64 62 61 62 61 62 63
18 12 9 5 0 1 2 12 13 13 15 12 9 9 13 16 16 16 15 22 26 23 23 29 32 31 46 49 50 52 52 51 50 58 59 59 61 59 62 62 63 63 63 63 65 64 64 65 63 63 61 60 63 66 62 65 63 61 60 59 60 58 54 58 60 59 58 58 59 61 64 65 64 62 62 62 62 63 65 64 64 63 64 64 65 66 65 65 66 65 63 62 62 60 58 59 62
18 17 5 3 0 0 -2 10 15 20 16 21 14 21 16 16 12 11 19 20 22 21 31 36 34 34 50 53 52 50 51 52 51 58 58 58 59 61 62 62 63 64 64 64 64 63 62 61 63 62 62 63 64 65 66 64 62 60 59 58 55 57 58 56 56 55 57 56 57 59 60 61 64 63 63 61 63 63 65 65 64 64 65 66 65 65 66 65 64 64 64 64 62 64 57 60 62
12 17 13 6 4 1 0 18 17 19 18 19 12 13 13 12 10 13 16 16 17 31 36 37 41 41 46 54 49 51 52 53 55 57 57 57 59 61 63 63 63 63 65 65 64 63 63 63 64 65 63 64 63 65 65 61 59 58 56 54 55 55 54 55 54 53 53 54 52 58 57 57 58 59 60 60 60 62 63 63 63 62 64 63 63 63 64 65 64 64 62 63 63 63 62 59 59
12 11 10 10 6 7 8 16 18 16 14 18 18 9 8 9 13 16 16 16 23 30 28 25 31 33 39 54 49 48 51 57 57 57 58 60 61 61 62 62 61 62 63 64 64 64 66 65 63 64 63 64 64 64 63 60 59 57 57 56 55 55 54 55 56 56 55 52 55 57 55 58 56 57 58 58 58 58 58 59 59 58 58 59 61 62 62 63 62 60 62 60 59 60 61 59 59
8 13 7 6 9 10 15 13 16 14 18 23 18 9 10 11 13 14 13 18 19 22 24 26 24 29 34 38 47 51 50 58 56 57 55 60 61 61 60 61 62 61 61 62 62 64 64 63 64 63 64 63 63 63 61 60 58 59 58 56 54 52 53 54 55 54 54 52 52 53 54 55 55 55 56 55 56 56 57 56 56 56 54 54 53 54 55 55 55 55 60 60 59 59 60 60 59
7 9 7 5 7 12 11 14 18 16 17 15 17 12 11 15 16 15 16 12 12 16 21 22 22 26 31 34 43 49 51 55 56 56 57 60 60 60 60 61 62 62 61 61 61 61 62 62 62 63 64 64 66 62 61 60 59 58 57 56 54 52 52 53 53 52 52 54 53 52 54 52 55 56 55 57 56 56 56 57 57 56 55 54 51 52 56 55 57 62 63 62 61 61 60 63 61
8 -0 9 6 2 1 7 11 8 14 15 17 19 17 10 12 18 14 15 10 12 17 19 19 24 29 30 34 56 56 53 52 55 57 58 60 59 60 62 62 62 62 63 62 63 63 62 61 60 60 61 64 65 64 63 61 58 58 56 56 55 51 52 52 51 53 54 55 54 54 53 53 54 57 57 56 56 54 56 57 56 56 56 55 54 53 56 59 60 61 62 63 63 62 61 62 61
6 11 10 6 1 6 12 14 12 19 12 14 20 17 10 7 18 20 15 17 17 17 21 23 29 34 34 40 47 52 54 51 54 57 59 60 59 60 61 59 61 63 63 62 62 63 62 61 61 60 61 63 64 65 64 62 59 57 56 56 56 54 53 53 52 53 52 54 52 54 53 53 54 55 57 58 56 56 58 57 57 56 57 57 55 54 56 55 59 62 63 63 63 62 61 62 61
13 14 10 10 14 14 15 17 15 12 10 15 16 18 16 12 18 20 22 26 23 21 28 30 34 36 40 48 48 50 48 49 49 55 57 59 60 60 59 59 60 60 61 61 61 63 63 61 61 60 61 62 63 64 64 62 59 59 59 58 56 55 54 52 52 52 52 53 53 53 52 53 55 55 56 55 56 57 58 57 56 56 56 57 56 57 56 58 61 61 61 61 61 63 62 61 61
9 13 12 11 9 11 10 10 10 10 13 15 13 15 18 14 34 29 30 32 34 33 31 36 37 36 40 41 45 46 47 49 54 53 54 58 59 59 58 57 58 60 60 61 61 62 62 61 60 60 60 61 62 63 64 63 61 59 58 58 58 57 54 52 51 50 50 50 51 51 51 52 52 53 54 54 56 56 56 57 56 55 57 58 57 56 58 58 59 60 61 61 61 61 61 61 60
11 13 15 14 9 11 12 8 9 12 16 17 17 17 14 17 34 31 31 36 38 38 38 39 40 42 40 35 43 42 50 51 52 55 54 57 58 57 57 56 56 59 61 61 60 61 61 60 61 60 60 61 61 62 62 62 61 60 60 60 59 56 54 54 52 51 50 50 50 51 52 51 52 54 53 54 55 56 56 57 58 57 56 57 57 57 56 55 56 56 60 60 59 61 60 58 56
7 10 10 15 15 13 11 8 8 9 11 20 15 19 14 14 30 32 31 35 39 38 38 42 42 40 38 33 37 42 45 49 51 53 54 57 58 57 57 56 57 59 60 61 60 61 61 60 60 61 62 63 62 61 62 61 61 62 62 61 59 57 53 53 51 51 52 50 50 52 53 53 53 53 53 55 55 55 55 55 56 57 57 57 56 56 55 55 55 53 54 55 53 53 53 54 53
7 7 9 12 17 14 9 18 16 15 13 17 20 18 16 26 32 31 32 35 38 39 41 42 41 40 41 41 39 42 43 46 46 50 54 58 58 57 57 56 57 58 61 59 59 59 59 58 59 59 60 61 61 61 61 61 62 62 62 61 59 56 52 54 52 52 52 52 53 53 54 54 53 51 53 54 54 53 52 51 52 54 54 54 54 52 52 52 53 53 51 52 50 48 51 50 50
14 6 10 11 11 11 15 20 23 22 14 14 20 21 27 29 28 27 29 32 37 40 40 42 44 43 45 44 44 45 47 47 47 51 53 58 60 57 56 57 58 59 60 60 58 57 58 60 60 59 60 60 60 60 61 61 62 61 61 61 59 56 54 53 53 55 54 54 54 55 54 53 53 52 52 54 54 52 51 51 51 52 53 52 51 50 48 49 49 49 49 49 49 48 49 46 47
13 13 9 10 10 15 21 12 16 13 8 14 21 16 18 18 24 25 28 31 35 37 40 42 46 47 47 47 47 46 48 47 48 52 55 58 57 56 54 55 57 58 59 60 60 61 62 60 60 61 60 59 59 59 60 61 61 60 61 60 59 56 53 53 53 54 55 55 54 54 55 52 52 51 50 51 52 52 49 48 49 49 50 49 48 46 45 47 48 46 46 46 46 47 46 46 46
11 14 13 11 13 13 16 17 12 11 10 7 12 14 14 24 24 23 30 33 37 39 39 42 43 44 46 48 47 46 49 51 52 54 53 54 55 55 55 55 54 56 57 58 58 59 59 60 59 60 60 59 59 59 60 60 60 60 60 60 58 54 54 55 54 54 54 53 54 53 52 52 52 51 52 53 48 45 46 46 47 47 48 47 47 46 46 47 46 45 44 43 46 46 45 46 48
11 12 11 11 18 21 12 14 14 16 11 12 14 12 14 26 30 23 33 36 39 41 42 43 43 45 46 46 45 44 47 49 49 51 53 54 55 56 55 54 51 51 51 55 58 58 58 59 58 58 60 59 60 59 59 59 59 59 60 59 57 52 52 53 53 54 53 50 50 55 56 52 51 49 54 53 46 44 44 44 44 44 44 44 44 45 45 44 45 43 43 42 44 44 42 43 44
10 12 13 14 23 19 15 23 12 12 12 11 10 11 24 31 33 34 35 37 40 43 43 44 43 43 44 44 47 48 49 49 48 49 50 50 51 52 54 56 56 52 51 53 55 55 55 57 56 55 58 58 59 58 58 58 58 58 59 59 57 54 54 52 53 54 53 50 50 51 53 54 50 50 50 48 45 43 41 43 41 40 40 44 44 46 46 46 44 44 44 44 41 40 41 42 45
11 12 13 10 15 14 12 14 16 18 12 14 11 12 31 33 33 35 36 37 39 41 42 43 43 44 46 48 49 49 48 48 48 49 50 51 52 52 52 51 51 50 50 53 56 57 57 56 54 55 56 57 57 57 58 58 59 59 59 59 57 55 52 53 55 56 54 51 49 50 52 50 52 50 47 42 43 45 44 43 40 39 40 41 43 43 45 46 44 46 47 47 45 41 41 41 45